Welcome to the New NWS' Forecast!
Most changes are behind the scenes, but click here for differences you might notice.
Latest weather observations around

Monroe Regional Airport (KMLU)

Using English Units (Switch to International System of Units)
Date/ Time (CDT) Wind (mph) Vis. (mi) Weather Sky Cond. Temp (°F) Rel. Humidity Wind Chill (°F) Heat Index (°F) Pressure Precip. (in)
Air Dwpt 6 hour Altimeter (inHg) Sea level (inHg) 1 hr 3 hr 6 hr
Max Min
Sep 24 11:53 E 7 10 Clear CLR 88 68     52%   92 29.98 29.98      
Sep 24 10:53 5 10 Clear CLR 86 69     57%   90 29.99 29.98      
Sep 24 09:53 Calm 10 Clear CLR 81 70     69%   84 29.99 29.98      
Sep 24 08:53 E 3 10 Clear CLR 76 71     85%   77 29.98 29.98      
Sep 24 07:53 ENE 3 8 Clear CLR 72 70     93%   73 29.97 29.97      
Sep 24 06:53 Calm 4 Fog/Mist CLR 68 67     96%     29.97 29.96      
Sep 24 05:53 Calm 8 Clear CLR 71 69     93%   72 29.96 29.95      
Sep 24 04:53 Calm 9 Clear CLR 71 69     93%   72 29.95 29.95      
Sep 24 03:53 Calm 9 Clear CLR 70 68     93%     29.95 29.94      
Sep 24 01:53 Calm 10 Clear CLR 73 70     90%   74 29.94 29.93      
Sep 24 00:53 ESE 5 10 Clear CLR 76 70     82%   77 29.94 29.93      
Sep 23 23:53 Calm 10 Clear CLR 73 71     94%   74 29.93 29.93      
Sep 23 22:53 Calm 9 Clear CLR 74 72     94%   75 29.94 29.94      
Sep 23 21:53 Calm 10 Clear CLR 75 73     94%   77 29.94 29.94      
Sep 23 20:53 Calm 10 Clear CLR 76 73     91%   77 29.93 29.92      
Sep 23 19:53 Calm 10 Clear CLR 77 73     88%   79 29.92 29.91      
Sep 23 18:53 Calm 10 Clear CLR 82 72     72%   87 29.92 29.91     0
Sep 23 17:53 Calm 10 Clear CLR 89 69     52%   94 29.91 29.91      
Sep 23 16:53 ENE 6 10 Partly Cloudy SCT065 90 69     50%   95 29.91 29.91      
Sep 23 15:53 ENE 11 10 Cloudy SCT055 BKN080 OVC120 92 70     49%   98 29.92 29.91 0 0  
Sep 23 14:53 NE 6 10 Mostly Cloudy BKN055 BKN110 92 69     47%   97 29.93 29.93      
Sep 23 13:53 ENE 5 10 Mostly Cloudy SCT050 BKN070 BKN095 91 68     47%   95 29.95 29.95      
Sep 23 12:53 S 3 10 Partly Cloudy SCT060 91 70     50%   97 29.98 29.97      
Sep 23 11:53 E 7 10 Clear CLR 91 70     50%   97 29.99 29.98      
Sep 23 10:53 3 10 Clear CLR 88 71     57%   94 29.99 29.99      
Sep 23 09:53 3 10 Clear CLR 85 72     65%   91 29.99 29.98      
Sep 23 08:53 ENE 6 6 Clear   79 72     79%   82 29.99 29.98      
Sep 23 07:53 Calm 6 Haze CLR 74 71     91%   75 29.97 29.97      
Sep 23 06:53 Calm 6 Haze CLR 70 69     97%     29.96 29.96      
Sep 23 05:53 Calm 5 Fog/Mist CLR 71 70     96%   72 29.96 29.95      
Sep 23 04:53 Calm 5 Fog/Mist CLR 70 69     97%     29.95 29.95      
Sep 23 03:53 Calm 5 Fog/Mist CLR 71 71     100%   73 29.94 29.93      
Sep 23 03:20 Calm 6 Fog/Mist CLR 72 71     97%   73 29.94        
Sep 23 03:10 Calm 2 Fog/Mist CLR 71 71     100%   73 29.94        
Sep 23 02:53 Calm 6 Fog/Mist CLR 72 71     97%   73 29.94 29.93      
Sep 23 01:53 Calm 5 Fog/Mist CLR 73 72     96%   75 29.95 29.94      
Sep 23 01:12 Calm 3 Fog/Mist CLR 73 73     100%   75 29.95        
Sep 23 01:00 Calm 1.5 Fog/Mist CLR 74 73     97%   76 29.96        
Sep 23 00:53 Calm 6 Fog/Mist CLR 73 72     96%   75 29.96 29.95      
Sep 22 23:53 Calm 8 Clear CLR 75 74     96%   77 29.95 29.95      
Sep 22 22:53 Calm 9 Mostly Clear FEW070 75 73     94%   77 29.96 29.96      
Sep 22 21:53 Calm 10 Clear CLR 76 74     94%   78 29.96 29.95      
Sep 22 20:53 Calm 10 Clear CLR 78 74     87%   80 29.95 29.95      
Sep 22 19:53 Calm 10 Mostly Clear FEW065 79 74     85%   83 29.94 29.93      
Sep 22 18:53 NNE 3 10 Clear CLR 84 73     70%   90 29.94 29.93     0
Sep 22 17:53 E 3 10 Mostly Clear FEW002 90 71     54%   96 29.93 29.93      
Sep 22 17:50 NE 5 10 Mostly Clear FEW002 90 70     52%   95 29.93        
Sep 22 16:53 NE 6 10 Clear CLR 92 70     49%   98 29.93 29.93 0    
Sep 22 15:53 NE 10 10 Light Rain SCT100 90 69     50%   95 29.95 29.95 0 0  
Sep 22 15:51 E 5 10 Light Rain SCT100 90 70     52%   95 29.95   0    
Sep 22 15:36 S 5 10 Thunderstorms FEW100 89 68     50%   93 29.96        
Sep 22 14:53 ENE 5 10 Mostly Cloudy BKN055 94 69     45%   99 29.97 29.96      
Sep 22 13:53 S 6 10 Partly Cloudy SCT060 93 70     47%   99 29.99 29.98      
Sep 22 12:53 WSW 3 10 Clear CLR 90 71     54%   96 30.01 30      
Sep 22 11:53 S 3 10 Clear CLR 89 71     55%   95 30.03 30.02      
Sep 22 10:53 ESE 5 10 Clear CLR 87 73     63%   95 30.04 30.03      
Sep 22 09:53 Calm 10 Clear CLR 85 74     70%   92 30.04 30.03      
Sep 22 08:53 Calm 10 Clear CLR 79 74     85%   83 30.03 30.02      
Sep 22 07:53 Calm 6 Patchy Fog CLR 72 72     100%   74 30.02 30.01      
Sep 22 07:03 Calm 6 Clear   70 69     97%     30.01        
Sep 22 06:59 Calm 6 Clear   69 69     100%     30.01        
Sep 22 06:53 Calm 6 Clear   69 69     100%     30.01 30.01      
Sep 22 06:04 Calm 6 Fog/Mist CLR 70 69     97%     30        
Sep 22 05:55 Calm 1.75 Fog/Mist CLR 70 70     100%     29.99        
Sep 22 05:53 Calm 3 Fog/Mist CLR 70 69     97%     29.99 29.98      
Sep 22 05:38 Calm 1.75 Fog/Mist CLR 71 71     100%   73 29.99        
Sep 22 05:03 Calm 3 Fog/Mist CLR 71 70     96%   72 29.99        
Sep 22 04:53 Calm 1 Fog/Mist CLR 70 70     100%     29.98 29.98      
Sep 22 04:49 Calm 1.5 Fog/Mist CLR 72 72     100%   73 29.98        
Sep 22 04:41 Calm 6 Fog/Mist CLR 72 71     97%   73 29.98        
Sep 22 04:31 Calm 2 Fog/Mist CLR 71 70     96%   72 29.98        
Sep 22 04:19 Calm 3 Fog/Mist CLR 70 70     100%     29.98        
Sep 22 04:11 Calm 1.75 Fog/Mist CLR 71 70     96%   72 29.98        
Sep 22 04:00 Calm 4 Fog/Mist CLR 71 71     100%   73 29.98        
Sep 22 03:53 Calm 2 Fog/Mist CLR 72 71     97%   73 29.98 29.97      
Sep 22 03:40 Calm 1.75 Fog/Mist CLR 72 71     97%   73 29.98        
Sep 22 02:53 Calm 6 Fog/Mist CLR 72 71     97%   73 29.98 29.97      
Sep 22 01:53 Calm 7 Clear CLR 73 72     96%   75 29.98 29.98      
Sep 22 00:53 Calm 10 Clear CLR 74 72     94%   75 29.98 29.97      
Sep 21 23:53 Calm 10 Clear CLR 74 72     94%   75 29.98 29.97      
Sep 21 22:53 Calm 10 Clear CLR 75 72     90%   76 29.99 29.98      
Sep 21 21:53 Calm 10 Clear CLR 77 73     88%   79 29.98 29.98      
Sep 21 20:53 Calm 10 Clear CLR 78 73     85%   80 29.98 29.97      
Sep 21 19:53 Calm 10 Clear CLR 79 75     88%   83 29.96 29.95      
Sep 21 18:53 Calm 10 Mostly Clear FEW065 83 75     77%   90 29.94 29.94      
Sep 21 17:53 Calm 10 Clear CLR 90 70     52%   95 29.94 29.93      
Sep 21 16:53 Calm 10 Mostly Cloudy BKN065 92 70     49%   98 29.94 29.94      
Sep 21 16:23 Calm 10 Mostly Cloudy BKN065 88 73     61%   96 29.95        
Sep 21 16:08 Calm 10 Clear CLR 86 74     67%   94 29.96        
Sep 21 15:53 SE 5 10 Mostly Cloudy BKN065 88 72     59%   95 29.96 29.96      
Sep 21 14:53 5 10 Mostly Cloudy BKN050 90 72     56%   97 29.99 29.98      
Sep 21 13:53 S 5 10 Mostly Cloudy BKN041 89 73     59%   97 30.01 30      
Sep 21 13:00 ENE 3 10 Partly Cloudy SCT034 89 73     59%   97 30.03        
Sep 21 12:53 3 10 Mostly Cloudy BKN025 88 73     61%   96 30.03 30.02      
Jun 11 22:53 E 3 10 Clear   74 72     94%   75 30.02 30.01 0    
Jun 11 10:53 6 10 Partly Cloudy SCT050 83 70     65%   87 30.05 30.05      
Jun 11 01:53 S 3 10 Clear CLR 72 64     76%   72 30 29.99      
Jun 09 08:53 5 10 Clear CLR 73 61     66%   73 29.98 29.98      
Jun 09 04:53 Calm 10 Clear CLR 62 59     90%     29.93 29.93      
Jun 07 10:53 NE 17 10 Clear CLR 79 60     52%   79 29.93 29.92      
Jun 06 07:53 N 6 6 Light Rain and Fog/Mist OVC005 73 71     94%   74 29.77 29.76 0    
Jun 06 04:53 N 6 10 Light Rain OVC110 72 71     97%   73 29.74 29.73 0    
Notice The following observation data may not be complete
Jun 06 03:06   1 Heavy Rain and Fog/Mist FEW007 SCT017 OVC027          %         0    
Jun 06 01:53 N 5 10 Cloudy SCT019 BKN040 OVC090 74 71     91%   75 29.74 29.73      
Jun 05 14:11 5 10 Cloudy BKN020 OVC048 80 69     69%   83 29.75